Regional Weather Roundup
Issued by NWS

Home | Current Version | Previous Version | Text Only | Print | Product List | Glossary On
Versions: 1 2 3 4 5 6 7 8 9 10 11 12 13 14 15 16 17 18 19 20 21 22 23 24 25 26 27 28 29 30 31 32 33 34 35 36 37 38 39 40 41 42 43 44 45 46 47 48 49 50
000
ASUS42 KTBW 282010
RWRFL
FLORIDA REGIONAL WEATHER ROUNDUP
NATIONAL WEATHER SERVICE TAMPA BAY RUSKIN FL
300 PM EST SUN DEC 28 2014

NOTE: "FAIR" INDICATES FEW OR NO CLOUDS BELOW 12,000 FEET WITH NO
SIGNIFICANT WEATHER AND/OR OBSTRUCTIONS TO VISIBILITY.


FLZ001>010-012>015-112-114-115-282100-
PANHANDLE FLORIDA

CITY           SKY/WX    TMP DP  RH WIND       PRES   REMARKS
PENSACOLA      PTSUNNY   75  66  73 S9        30.01F
PENSACOLA NAS  CLOUDY    74  67  78 S10       30.02S
MILTON NAS     PTSUNNY   75  66  73 W3        30.01F
CRESTVIEW      PTSUNNY   75  68  78 SW5       30.03F
DUKE FIELD     PTSUNNY   74  69  83 S6        30.02F
VALPARAISO     PTSUNNY   72  68  86 S8        30.03F
PANAMA CITY    MOCLDY    73  67  81 S10       30.04F
TYNDALL AFB    CLOUDY    73  73  99 S12       30.05F
APALACHICOLA   PTSUNNY   74  67  78 S10       30.06F

STATION/POSITION SKY/WX   TEMP    WIND        PRES    WAVE   SWELL
                          AIR SEA DIR/SP/G            HT/PER HT/PER
                          (F)     (DEG/KT/KT) (MB)    (FT/S) (FT/S)
30.1N   87.6W              69 69  210/  2/  2 1016.1F   3/ 5   3/ 5
29.2N   88.2W              70 74  320/  6/  6 1016.4F   3/ 6   3/ 6
28.7N   86.0W              74 74  190/ 14/ 16 1017.7F   2/ 4   2/ 8
PANAMA CITY BEAC           65 63  130/ 10/ 12 1017.1S
CAPE SAN BLAS    NOT AVBL
TOWER C                    67     160/ 14/ 14 1017.6F
28.5N   84.5W              73 72  160/  8/  8 1018.6F   1/ 7

$$
FLZ011-016>038-118-127-128-134-139-239-282100-
NORTH FLORIDA

CITY           SKY/WX    TMP DP  RH WIND       PRES   REMARKS
MARIANNA       PTSUNNY   77  66  68 S12       30.03F
TALLAHASSEE    PTSUNNY   78  61  55 S9        30.05F
PERRY          PTSUNNY   75  63  66 SW9       30.08F
CROSS CITY       N/A     76  64  66 W13       30.09F
LAKE CITY      FAIR      75  64  69 SW10      30.08F
GAINESVILLE    PTSUNNY   77  66  68 W8        30.08F
MAYPORT NAS    PTSUNNY   81  66  60 SW8       30.06F
JACKSONVILLE   PTSUNNY   80  64  58 SW15      30.05F
JAX NAS        PTSUNNY   83  63  50 SW14      30.07S
JAX CRAIG      PTSUNNY   82  65  56 SW12      30.06F
JAX CECIL      PTSUNNY   81  66  61 SW9       30.07F
FERNANDINA BEA CLOUDY    82  68  61 SW6       30.05S
ST AUGUSTINE   PTSUNNY   80  68  66 SW9       30.08S

STATION/POSITION SKY/WX   TEMP    WIND        PRES    WAVE   SWELL
                          AIR SEA DIR/SP/G            HT/PER HT/PER
                          (F)     (DEG/KT/KT) (MB)    (FT/S) (FT/S)
SHELL POINT                69     180/  5/  7   N/A
KEATON BEACH               67     170/  9/ 10 1018.8F
CEDAR KEY                  67     250/  5/  6 1020.1F
FERNANDINA                 76 60  250/ 10/ 12 1017.2S
30.7N   81.3W                 62                N/A     3/15   2/15
MAYPORT                    78 62  240/  9/ 12   N/A
31.4N   80.9W              62 60  200/ 10/ 10 1017.4F   2/15   2/15
ST AUGUSTINE               66     170/  5/  5 1018.9F

$$
FLZ040-043>046-052-053-057-058-063-144-282100-
INTERIOR CENTRAL FLORIDA

CITY           SKY/WX    TMP DP  RH WIND       PRES   REMARKS
OCALA          PTSUNNY   79  66  65 W9        30.09F
THE VILLAGES     N/A     81  66  61 S8        29.99S
LEESBURG       MOSUNNY   79  66  64 SW6       30.10S
SANFORD        MOSUNNY   82  62  50 S7        30.08F
ORLANDO EXEC   PTSUNNY   80  64  58 S3        30.08F
ORLANDO INTL   PTSUNNY   83  61  47 SW10      30.09F
KISSIMMEE      MOSUNNY   82  63  51 S7        30.09F
WINTER HAVEN   MOSUNNY   83  62  49 SW7       30.10F
LAKELAND       MOSUNNY   81  64  57 SW5       30.10S
BARTOW         MOSUNNY   81  61  50 S9        30.10F
OKEECHOBEE     MOSUNNY   79  66  65 S8        30.10F

$$
FLZ041-047-054-059-064-141-147-282100-
EAST CENTRAL FLORIDA

CITY           SKY/WX    TMP DP  RH WIND       PRES   REMARKS
ORMOND BEACH   MOSUNNY   81  66  61 W6        30.08F
DAYTONA BEACH  PTSUNNY   80  67  64 SW6       30.08F
DELAND         MOCLDY   N/A N/A N/A W6        30.09
NEW SMYRNA BEA MOSUNNY   77  68  73 E9        30.10S
JFK SPACE CTR  MOSUNNY   82  68  62 SW9       30.08F
TITUSVILLE     MOSUNNY   81  64  57 S3        30.09S
CAPE CANAVERAL MOSUNNY   79  68  69 S9        30.08S
PATRICK AFB    SUNNY     77  71  82 SE12      30.09S
MELBOURNE      MOSUNNY   80  69  69 SE8       30.09S
VERO BEACH     PTSUNNY   80  68  66 SE9       30.09F
FT PIERCE      MOSUNNY   79  69  71 SE10      30.09S
STUART         PTSUNNY   81  68  65 SE10      30.10F

STATION/POSITION SKY/WX   TEMP    WIND        PRES    WAVE   SWELL
                          AIR SEA DIR/SP/G            HT/PER HT/PER
                          (F)     (DEG/KT/KT) (MB)    (FT/S) (FT/S)
28.5N   80.2W              75 76  200/  8/  8 1019.3F
28.9N   78.5W              77 77  220/ 10/ 12 1019.4R   5/15   5/15
TRIDENT PIER               77 68  130/  4/  7 1018.5S
28.4N   80.5W                 71                N/A     2/15   2/15
27.6N   80.2W                 76                N/A     3/14   3/14

$$
FLZ050-056-061-142-242-148-248-149-249-151-251-155-255-
160-260-282100-
WEST CENTRAL FLORIDA

CITY           SKY/WX    TMP DP  RH WIND       PRES   REMARKS
CRYSTAL RIVER  FAIR      73  64  73 W8        30.10
INVERNESS      MOCLDY    79  64  61 SW7       30.10
BROOKSVILLE    PTSUNNY   78  66  66 W15       30.11R
ZEPHYRHILLS    FAIR      79  61  53 W6        30.11
CLEARWATER     MOSUNNY   77  66  68 S10       30.10F
TAMPA INTL     MOSUNNY   77  66  68 SW10      30.11F
TAMPA EXEC     MOSUNNY   81  64  57 W5        30.10
PLANT CITY     MOSUNNY   82  64  54 W9        30.12
MACDILL AFB    SUNNY     79  71  75 SW13      30.11F
PETER O KNIGHT SUNNY     81  68  65 SW9       30.11
ST PETERSBURG  MOSUNNY   75  65  70 W9        30.09F
SARASOTA       SUNNY     76  68  76 S10       30.09F
VENICE         FAIR      77  66  69 S9        30.11

STATION/POSITION SKY/WX   TEMP    WIND        PRES    WAVE   SWELL
                          AIR SEA DIR/SP/G            HT/PER HT/PER
                          (F)     (DEG/KT/KT) (MB)    (FT/S) (FT/S)
CEDAR KEY                  67     250/  5/  6 1020.1F
28.5N   84.5W              73 72  160/  8/  8 1018.6F   1/ 7
27.3N   84.3W                 75                N/A     2/ 5
CLEARWATER BEACH           70 68  220/  4/  5 1019.3F
MIDDLE TAMPA BAY           71     280/  7/  7 1019.6F
VENICE                     72 68  160/  6/  6 1018.9F

$$
FLZ066-069-070-075>078-162-262-165-265-282100-
SOUTHWEST FLORIDA AND KEYS

CITY           SKY/WX    TMP DP  RH WIND       PRES   REMARKS
PUNTA GORDA    SUNNY     79  66  64 W14       30.12S
FT MYERS       SUNNY     80  64  58 SW9       30.09F
SOUTHWEST INTL SUNNY     80  65  59 SW10      30.10S
NAPLES         MOSUNNY   80  66  62 S13       30.10S
MARCO ISLAND   MOCLDY    81  64  57 S8        30.10S
MARATHON       MOSUNNY   80  72  76 SE6       30.09S
KEY WEST NAS   SUNNY     81  67  62 SE9       30.09S
KEY WEST INTL  SUNNY     80  68  66 SE10      30.09S

STATION/POSITION SKY/WX   TEMP    WIND        PRES    WAVE   SWELL
                          AIR SEA DIR/SP/G            HT/PER HT/PER
                          (F)     (DEG/KT/KT) (MB)    (FT/S) (FT/S)
VENICE                     72 68  160/  6/  6 1018.9F
NAPLES                     76 77  190/  2/  4 1019.9F
26.0N   85.6W              75 75  130/  8/ 10 1017.9F   3/ 7   3/ 7
DRY TORTUGAS               73      80/  8/  8 1018.7F
NW FL BAY                  77     140/  5/  5 1019.6F
SAND KEY                   77     120/  9/ 10 1018.9S
SOMBRERO KEY               79     120/  8/  9 1019.6S
LONG KEY                   78 76  130/  7/  8 1019.8F
MOLASSES REEF              77 79  110/  5/  5 1019.2S

$$
FLZ067-068-071>074-168-172>174-282100-
SOUTHEAST FLORIDA

CITY           SKY/WX    TMP DP  RH WIND       PRES   REMARKS
W PALM BEACH   MOSUNNY   81  69  67 SE13G18   30.09S
FT LAUDER-EXEC MOSUNNY   80  29  15 S8        30.09F
FT LAUDERDALE  MOSUNNY   78  69  73 SE12      30.09F
POMPANO BEACH  SUNNY     80  68  66 S10       30.10F
PEMBROKE PINES MOSUNNY   81  67  62 SE10      30.10F
OPA LOCKA      MOSUNNY   81  67  62 SE7G16    30.10F
MIAMI          MOSUNNY   81  68  64 SE8       30.10F
WEST KENDALL   MOSUNNY   80  67  64 SE8       30.10S
HOMESTEAD      SUNNY     80  68  66 E9        30.10S

STATION/POSITION SKY/WX   TEMP    WIND        PRES    WAVE   SWELL
                          AIR SEA DIR/SP/G            HT/PER HT/PER
                          (F)     (DEG/KT/KT) (MB)    (FT/S) (FT/S)
PORT EVERGLADES            79     150/  5/  7 1019.2
VIRGINIA KEY               77 76  160/  6/  8 1019.7F
LAKE WORTH                 77 77  170/  9/ 10 1019.1S
FOWEY ROCKS                77 77  140/  5/  6 1019.4F


USA.gov is the U.S. government's official web portal to all federal, state and local government web resources and services.